Regional Weather Roundup
Issued by NWS

Home | Current Version | Previous Version | Text Only | Print | Product List | Glossary Off
Versions: 1 2 3 4 5 6 7 8 9 10 11 12 13 14 15 16 17 18 19 20 21 22 23 24 25 26 27 28 29 30 31 32 33 34 35 36 37 38 39 40 41 42 43 44 45 46 47 48 49 50

000
ASUS44 KMEG 120610
RWRTN
TENNESSEE HOURLY STATE WEATHER ROUNDUP
NATIONAL WEATHER SERVICE MEMPHIS TN
1200 AM CST FRI FEB 12 2016

TNZ002-004-019-021-049-052-054-088>092-120700-
WEST TENNESSEE

CITY           SKY/WX    TMP DP  RH WIND       PRES   REMARKS
MEMPHIS INTL   MOCLDY    42  24  49 E7        30.17F
NWS MEMPHIS      N/A     39 N/A N/A MISG        N/A
JACKSON        CLOUDY    36  24  62 E9        30.17F WCI  29
DYERSBURG      PTCLDY    34  25  69 E6        30.22S WCI  29
UNION CITY     CLEAR     30  21  69 E7        30.16F WCI  23
PARIS          CLOUDY    30  19  64 E9        30.20F WCI  22
LEXINGTON      CLEAR     34  21  60 NE3       30.19S
$$

TNZ008-025-027-028-033-062-065-066-120700-
NORTH MIDDLE TENNESSEE

CITY           SKY/WX    TMP DP  RH WIND       PRES   REMARKS
NASHVILLE      CLOUDY    34  19  54 E5        30.24S WCI  30
CLARKSVILLE    CLOUDY    31  17  56 NE6       30.24F WCI  25
SMYRNA         CLOUDY    33  23  67 NW3       30.27R
COOKEVILLE     MOCLDY    30  25  80 CALM      30.18S
CROSSVILLE     CLOUDY    29  18  63 E3        30.14F
$$

TNZ061-075-076-078-094-096-097-120700-
SOUTH MIDDLE TENNESSEE

CITY           SKY/WX    TMP DP  RH WIND       PRES   REMARKS
FAYETTEVILLE   MOCLDY    34  25  69 N7        30.17R WCI  28
TULLAHOMA      PTCLDY    30  21  69 N6        30.18R WCI  24
WINCHESTER     MOCLDY    28  27  93 CALM      30.16F
MCMINNVILLE    CLEAR     30  21  69 N5        30.19R WCI  25
COLUMBIA       CLEAR     34  27  75 NE5       30.19F WCI  30
SHELBYVILLE    CLEAR     34  27  75 N5        30.22R WCI  30
$$

TNZ017-018-042-046-047-120700-
NORTHEAST TENNESSEE

CITY           SKY/WX    TMP DP  RH WIND       PRES   REMARKS
TRI CITIES     CLOUDY    26  19  74 CALM      30.20F
$$

TNZ012-013-036-069-073-074-120700-
CENTRAL EAST TENNESSEE

CITY           SKY/WX    TMP DP  RH WIND       PRES   REMARKS
KNOXVILLE      CLOUDY    31  19  61 NE7       30.20F WCI  24
OAK RIDGE      CLOUDY    32  17  54 N3        30.22F
GATLINBURG     MOCLDY    25  19  80 CALM      30.21F
MORRISTOWN     CLOUDY    28  21  74 CALM      30.19F
$$

TNZ083-085-099-120700-
SOUTHEAST TENNESSEE

CITY           SKY/WX    TMP DP  RH WIND       PRES   REMARKS
CHATTANOOGA    MOCLDY    35  23  61 N6        30.20F WCI  30
$$

SKY/WX REPORTED AS FAIR MEANS FEW OR NO CLOUDS BELOW
12 THOUSAND FEET.




USA.gov is the U.S. government's official web portal to all federal, state and local government web resources and services.